[Date Prev][Date Next][Thread Prev][Thread Next] - [Date Index][Thread Index][Author Index]
2 Line ISS Keps 1-27
- Subject: [sarex] 2 Line ISS Keps 1-27
- From: "Dave Larsen PhD" <doc@xxxxxxxxxxx>
- Date: Sun, 27 Jan 2002 03:10:17 -0800
ISS
1 25544U 98067A 02027.19018419 .00071561 00000-0 91076-3 0 92
2 25544 51.6398 41.7426 0006636 0.5833 122.6320 15.58670670182033
----
Via the sarex mailing list at AMSAT.ORG courtesy of AMSAT-NA.
To unsubscribe, send "unsubscribe sarex" to Majordomo@amsat.org
AMSAT Home